Regional Weather Roundup
Issued by NWS

Home | Current Version | Previous Version | Text Only | Print | Product List | Glossary On
Versions: 1 2 3 4 5 6 7 8 9 10 11 12 13 14 15 16 17 18 19 20 21 22 23 24 25 26 27
000
ASUS44 KBMX 261110
RWRAL

ALABAMA REGIONAL WEATHER ROUNDUP
NATIONAL WEATHER SERVICE BIRMINGHAM AL
600 AM CDT THU APR 26 2018

NOTE: "FAIR" INDICATES FEW OR NO CLOUDS BELOW 12,000 FEET
WITH NO SIGNIFICANT WEATHER AND/OR OBSTRUCTIONS TO VISIBILITY.

THE REMARK "TC" DENOTES TEMPERATURE IN DEGREES CELSIUS.

ALZ001>011-014-016>018-020-261200-
NORTH ALABAMA

CITY           SKY/WX    TMP DP  RH WIND       PRES   REMARKS
MUSCLE SHOALS  RAIN      55  52  89 NE7       29.86F
HUNTSVILLE     RAIN      57  57 100 E5        29.87R FOG
DECATUR        RAIN      57  56  96 CALM      29.88R FOG
HALEYVILLE     LGT RAIN  55  55 100 VRB7      29.86F
GADSDEN        LGT RAIN  53  53 100 SW3       29.90R
$$

ALZ012-013-022-023-030>036-040>044-261200-
WEST CENTRAL ALABAMA

CITY           SKY/WX    TMP DP  RH WIND       PRES   REMARKS
TUSCALOOSA     RAIN      59  59 100 SE5       29.83S FOG
DEMOPOLIS      RAIN      57  54  90 CALM      29.85R
$$

ALZ015-024>026-033>036-041>044-261200-
CENTRAL ALABAMA

CITY           SKY/WX    TMP DP  RH WIND       PRES   REMARKS
BIRMINGHAM     RAIN      57  54  89 N5        29.87S
MONTGOMERY     FAIR      56  54  93 CALM      29.84F
SHELBY CO ARPT CLOUDY    57  54  89 CALM      29.85S
MAXWELL AFB    MOCLDY    55  54  95 E3        29.83F
GREENVILLE     FAIR      53  49  86 CALM      29.84S
SELMA          CLOUDY    55  54  94 SE6       29.81F
PRATTVILLE     PTSUNNY   53  53 100 CALM      29.84F
BESSEMER       LGT RAIN  56  55  97 NW6       29.88R
TALLADEGA      CLOUDY    54  52  94 CALM      29.88R
PELL CITY      MOSUNNY   54  54 100 CALM      29.87F
MARION         HVY RAIN  56  56  99 NW10      29.85R
SYLACAUGA      CLOUDY    57  56  97 E7        29.85S
$$

ALZ019-021-028-029-037-038-045>048-261200-
EAST CENTRAL ALABAMA

CITY           SKY/WX    TMP DP  RH WIND       PRES   REMARKS
ANNISTON       CLOUDY    54  50  86 NE3       29.87R
ALEXANDER CITY FAIR      52  52 100 CALM      29.86F
AUBURN         MOCLDY    54  51  90 CALM      29.89R
$$

ALZ051>064-261200-
SOUTHWEST ALABAMA

CITY           SKY/WX    TMP DP  RH WIND       PRES   REMARKS
MOBILE         MOCLDY    66  62  87 SW7       29.87R
BROOKLEY FIELD MOCLDY    68  67  96 CALM      29.88R
EVERGREEN      FAIR      54  51  90 SE5       29.85S
$$

ALZ049-050-065>069-261200-
SOUTHEAST ALABAMA

CITY           SKY/WX    TMP DP  RH WIND       PRES   REMARKS
DOTHAN         FAIR      56  53  90 S7        29.90F
OZARK          FAIR      55  53  95 S3        29.87S
TROY           FAIR      52  51  97 CALM      29.87R
EUFAULA        FOG       51  51 100 NW3       29.86S VSB 1/2
$$




USA.gov is the U.S. government's official web portal to all federal, state and local government web resources and services.